Location: Most
(50.5133°N, 13.6207°E)
Time: 13:03:43
(UTC+01:00)

X-37B - Visible Passes

Search period start: 03 December 2022 00:00
Search period end: 13 December 2022 00:00
Orbit: 277 x 277 km, 45.0° (Epoch: 01 November)

Date Brightness Start Highest point End Pass type
(mag) Time Alt. Az. Time Alt. Az. Time Alt. Az.
10 Dec 3.3 18:34:28 10° SW 18:34:42 12° SW 18:34:42 12° SW visible
11 Dec 2.6 17:02:03 10° S 17:03:17 13° SSE 17:04:31 10° SE visible
11 Dec 3.3 18:34:57 10° SW 18:35:21 13° SW 18:35:21 13° SW visible
12 Dec 2.4 17:02:07 10° SSW 17:03:47 16° SSE 17:05:28 10° ESE visible
12 Dec 3.3 18:35:31 10° WSW 18:36:00 13° SW 18:36:00 13° SW visible
